Timeline UpdatesTrip UpdatesNews PostsPvt Posts♥♥Travel TipsAdmin PostsConv PostsFollowed PostsChat RequestsBlog PostsPNR Posts

Disclaimer
Search
 
 
Tue Oct 21, 2014 20:43:08 ISTHomeTrainsΣChainsAtlasPNRForumGalleryNewsFAQTripsMembersLoginFeedback
No Recent News for this Train
Other Trains in the News **new
Latest...
Temporary Stop at Vindhyachal (BDL) for 2 minutes from 25/9/14-6/10/14 #1223333.
Wed Sep 24, 2014 (11:32PM)
⇐ Return Journey: Train# 14055

14056/Brahmaputra Mail

Time-Table HAS CHANGED.
Sep 24 (11:32PM)
Change Departure Station:
Change Arrival Station:
Post a Train Travel TipPost a Train Travel Tip **new
Post a Comment/Question/Picture/VideoPost a Comment/Question/Picture/Video
Inaugural Run
Tue Oct 01, 1974
Pantry/Catering
✓ Pantry Car Avbl
✓ Catering Avbl
RSA - Rake Sharing
NO RSA
Rake/Coach Composition
LOCO-SLR-GS-GS-GS-S1-S2-S3-S4-S5-S6-S7-S8-S9-S10-S11-PC-A1-B1-B2-B3-GS-GS-GS-SLR
Loco
GZB WAP-4 (DLI-KIUL); SGUJ WDP-4/4B/4D (KIUL-DBRG)
News    PNR    Forum    Time-Table    Availability    Fare Chart    Map    Arr/Dep History    Trips    Gallery    ΣChains    X/O    Timeline    
Travel Time: 52h 20m    59 halts    Distance: 2598 km    Avg Speed: 49 km/hr
Type: Mail/Express
Zone: NR/Northern
Departs @ 23:40 (Avg 10m late)
Platform# 16
SMTWTFS
Old Delhi Junction/DLI 
Arrives @ 04:00 +3 nights (Avg 2h 55m late)
Platform# 1
SMTWTFS
Dibrugarh/DBRG 

59 halts. 438 intermediate Stations between Old Delhi Junction and Dibrugarh

Show ALL intermediate Stations  Show Old Time-Table

#TrkCodeStation NameX/OArrivesAvgDepartsAvgHaltPFDay#KmSpeedElevZoneAddress
1/==/DLIOld Delhi Junction (16)»  -23:40+101610.059219mNRNear Chandni Chowk Metro Station, Delhi NCT
2/==/KRJKhurja Junction (4)  01:04+2701:06+272m3282.782199mNCRBulandshahr, Uttar Pradesh
3/==/ALJNAligarh Junction (4)XO  01:38+2801:43+285m22126.273192mNCRAligarh, Uttar Pradesh
4/==/TDLTundla Junction (5)XO  02:47+3202:52+335m--2204.487167mNCRDistt.Firozabad, Uttar Pradesh
5/==/SKBShikohabad Junction (4)X  03:19 03:17+4603:21 03:19+462m22240.875166mNCRDistrict Firozabad, Uttar Pradesh
6/==/CNBKanpur Central (10)  05:45 05:55+5605:55 06:00+1:0110 5m--2435.578128mNCRKANPUR-208 001, Uttar Pradesh
7/==/ALDAllahabad Junction (10)X  08:25 08:30+1:3308:35 08:40+1:4210m42629.974100mNCRAllahabad 211003, Uttar Pradesh
8/==/MZPMirzapur (3)X  09:48 09:53+2:0309:50 09:55+2:042m--2719.44088mNCRMirzapur, Uttar Pradesh
9/==/MGSMughal Sarai Junction (8)O  11:20 11:30+2:0111:30 11:45+1:5910 15m12782.67583mECRDistt: Chandauli Pin 232101, Uttar Pradesh
10/==/DLNDildarnagar Junction (2)X  12:16 12:31+2:0712:18 12:33+2:072m--2840.39172mECRDildarnagar, Uttar Pradesh
11/==/BXRBuxar (3)X  12:47 12:57+2:1312:49 12:59+2:142m--2876.59667mECRBuxar, Bihar
12/==/ARAAra Junction (3)X  13:38 13:42+2:2413:40 13:44+2:242m--2945.04863mECRDistt: Bhojpur Ph 06182-233411, Bihar
13/==/PNBEPatna Junction (10)  14:45+2:3814:55+2:3910m12993.94257mECRPatna 800001, Bihar
14/==/PNCPatna Saheb (3)  15:09+2:4915:11+2:502m221003.87859mECRPatna 800008, Bihar
15/==/MKAMokama Junction (4)  16:12+3:2016:14+3:212m--21083.23748mECRPatna, Bihar
16/==/KIULKiul Junction (5)17:10+3:1717:30+3:3320m421117.46653mECRDist. Lakhisarai, Bihar
17|==|AHAAbhaipur (3)  17:51+3:4217:53+3:422m--21140.46052mERAbhaipur, Bihar
18|=-|JMPJamalpur Junction (4)X  18:15+3:4318:30+3:4115m--21162.26559mERDist: Munger 06344-243101, Bihar
19|==|SGGSultanGanj (3)  18:57+3:4918:59+3:492m--21191.33342mERSultanganj, Bihar
20|==!BGPBhagalpur Junction (6)  19:45+3:3119:57+3:2912m121216.26949mERBhagalpur, Bihar
21!==!CLGKahalgaon (2)  20:23+3:4620:25+3:482m121246.33744mERBhagalpur, Bihar
22!==!SBGSahibganj Junction (3)X  21:37+3:2621:45+3:288m121290.23738mERSahibganj, Jharkhand
23|==|BHWBarharwa Junction (3)  22:53 23:13+3:2022:55 23:15+3:212m221344.64036mERBarharwa, Jharkhand
24%==%NFKNew Farakka Junction (3)X  23:22 23:42+3:2623:24 23:44+3:272m221362.63532mERDist - Murshidabad, West Bengal
25%==%MLDTMalda Town (5)X  00:20 00:45+3:1100:40 01:00+3:1320 15m--31397.78030mERDist - Malda, West Bengal
26%==%BOEBarsoi Junction (3)  01:50 02:08+3:4201:52 02:10+3:432m--31488.36937mNFRdist- katihar, Bihar
27%==%KNEKishanGanj (3)  02:36 03:00+3:4902:41 03:05+3:485m--31545.94852mNFRKishanganj, Bihar
28%==|NJPNew Jalpaiguri Junction (8)  04:25 04:55+3:2904:45 05:15+3:2520m131633.247114mNFRCity-Siliguri . Dist-Jalpaiguri, West Bengal
29|--|JPEJalpaiguri Road (2)  05:24 05:58+3:3505:26 06:00+3:372m131666.75689mNFRdist - Jalpaiguri 735102, West Bengal
30|--|DQGDhupguri (2)X  05:53 06:34+3:4105:58 06:39+3:425m--31698.57175mNFRDist - Jalpaiguri, West Bengal
31|--|FLKFalakata (3)X  06:18 06:58+3:4206:20 07:00+3:442m--31720.93867mNFRDist - Alipurduar, West Bengal
32!==!NCBNew Cooch Behar Junction (5)  07:10 08:00+3:3707:15 08:05+3:425m--31758.75647mNFRDist : Cooch Behar-736101, West Bengal
33!==!NOQNew Alipurduar (2)  07:35 08:25+3:4707:40 08:30+3:505m--31777.48148mNFRDist - Alipurduar - 736121, West Bengal
34|==|GOGHGossaigaon Hat (3)X  08:15 09:04+3:5508:17 09:06+3:562m--31823.078 NFRKokrajhar, Assam
35|==|FKMFakiragram Junction (4)X  08:36 09:24+4:0008:38 09:26+4:002m331846.35944mNFR03661-283454, Assam
36|==|KOJKokrajhar (3)X  08:48 09:36+3:5708:50 09:38+3:572m--31856.23246mNFR03661-270618, Assam
37|=-|NBQNew Bongaigaon Junction (4)  10:05 10:30+3:3110:15 10:40+3:3710m--31884.12458mNFR783381., Assam
38|--|BNGNBongaigaon (3)  10:21 10:46+3:3210:23 10:48+3:332m--31886.56360mNFRBongaigaon, Assam
39|--|BJFBijni  10:37 11:02+3:3610:39 11:04+3:372m--31901.27754mNFRDist: Chirang, Assam
40|--|BPRDBarpeta Road  11:07 11:25+3:3711:12 11:30+3:455m--31928.15849mNFRHowli, Assam
41|--|NLVNalbari  12:02 12:20+3:4112:04 12:22+3:442m--31976.56254mNFRNalbari, Assam
42|--|RNYRangiya Junction (5)X  12:25 12:38+3:4412:35 12:48+3:4410m--31993.02558mNFRRangia, Assam
43|-=|KYQKamakhya Junction (4)  13:57 14:25+3:3214:02 14:30+3:355m--32033.72855mNFRDist - KAMRUP, Assam
44|==|GHYGuwahati (7)X  14:25 14:45+3:3914:40 15:00+3:4615m--32040.65660mNFRGuwahati, Assam
45|=-|DGUDigaru  15:20 15:36+3:5215:22 15:38+3:532m--32074.26158mNFRDigaru, Assam
46|--|JIDJagi Road (2)X  15:47 16:01+4:0515:49 16:03+4:082m--32097.76862mNFRJagiroad, Assam
47|--|CPKChaparmukh Junction (3)X  16:20 16:33+4:2016:25 16:38+4:225m--32131.76165mNFRChaparmukh. Dist. Nagaon. Changing point for HBN/SHTT, Assam
48|--|KWMKampur  16:45 16:55+4:1816:47 16:57+4:202m--32148.94768mNFRKampur, Assam
49|--|JMKJamunamukhX  16:58 17:11+4:2117:00 17:13+4:222m--32159.75870mNFRNational Highway 36, Assam
50|-=!HJIHojai (2)  17:28 17:30+4:1917:30 17:32+4:222m--32176.24778mNFRHojai Rd. Ph:- 03674-252136., Assam
51!==!LKALanka (2)X  17:44 17:50+4:2617:46 17:52+4:262m--32190.22689mNFRLanka, Assam
52!=-|LMGLumding Junction (5)  18:55 19:05+3:5919:10 19:15+3:5815 10m332221.462142mNFRLumding, Assam
53|--|DPUDiphu (2)  20:06 19:46+3:5220:08 19:48+3:542m--32253.560180mNFRDiphu, Assam
54|--|DMVDimapur (3)  20:45 20:25+4:0220:55 20:35+4:0210m--32290.850153mNFRDimapur, Nagaland
55|--|BXJBokajan (2)  21:11 20:52+4:0221:13 20:57+4:012 5m--32305.036138mNFRBokajan, Assam
56|--|FKGFurkating Junction (2)  22:30+3:4522:32+3:512m--32361.053 NFRK B Rd, Assam
57|--|MXNMariani Junction (4)X  23:15+4:0523:25+4:0810m132399.065117mNFRDist. Jorhat Pin-785634, Assam
58|--|SLGRSimaluguri Junction (3)  00:10 00:15+4:2100:15 00:20+4:215m142453.26899mNFRSimaluguri, Assam
59|--|BOJBhojo  00:45 00:50+4:2500:50 00:55+4:245m--42487.141107mNFRBhojo Railway Station, Assam
60|--|NTSKNew Tinsukia Junction (3)  02:35+3:5902:45+4:0710m--42555.734124mNFRDist: Tinsukia, Assam
61|--|DBRGDibrugarh (4)•  04:00+2:55-142597.7-108mNFRDibrugarh 786003, Assam
Scroll to Top
Scroll to Bottom